Sidney-Richland, MT

5:30 PM MDT on September 25, 2017 (GMT -0600)
Sidney-Richland Municipal

Weather History for KSDY - January, 2014

Change the Weather History Date:

Sunday, January 26, 2014

  Actual Average Record
Temperature  
Mean Temperature 18 °F -  
Max Temperature 39 °F 24 °F 51 °F (2006)
Min Temperature -2 °F 3 °F -42 °F (1950)
Degree Days  
Heating Degree Days 46    
Moisture  
Dew Point 2 °F    
Average Humidity 62    
Maximum Humidity 75    
Minimum Humidity 38    
Precipitation  
Precipitation 0.00 in - - ()
Sea Level Pressure  
Sea Level Pressure 30.06 in    
Wind  
Wind Speed 22 mph (NW)    
Max Wind Speed 37 mph    
Max Gust Speed 48 mph    
Visibility 10 miles    
Events      
Averages and records for this station are not official NWS values.
T = Trace of Precipitation, MM = Missing Value Source: NWS Daily Summary

Daily Weather History Graph

Daily Weather History Graph

Search for Another Location

Airport or City:

Trip Planner

Search our weather history database for the weather conditions in past years. The results will help you decide how hot, cold, wet, or windy it might be!

Date:

Astronomy

Jan. 26, 2014 Rise Set
Actual Time 7:30 AM MST 4:48 PM MST
Civil Twilight 6:57 AM MST 5:22 PM MST
Nautical Twilight 6:19 AM MST 5:59 PM MST
Astronomical Twilight 5:43 AM MST 6:36 PM MST
Moon 3:12 AM MST (1/26) 12:37 PM MST (1/26)
Length of Visible Light 10h 25m
Length of Day
9h 17m
Waning Crescent, 23% of the Moon is Illuminated
Jan 26
Waning Crescent
Jan 30
New
Feb 6
First Quarter
Feb 14
Full
Feb 22
Last Quarter

Hourly Weather History & Observations

Time (MST) Temp. Windchill Dew Point Humidity Pressure Visibility Wind Dir Wind Speed Gust Speed Precip Events Conditions
12:15 AM 39.2 °F 29.8 °F 30.2 °F 70% 29.70 in 10.0 mi West 18.4 mph 28.8 mph N/A   Overcast
12:35 AM 39.2 °F 29.8 °F 30.2 °F 70% 29.69 in 10.0 mi WNW 18.4 mph 31.1 mph N/A   Overcast
12:55 AM 39.2 °F 29.3 °F 30.2 °F 70% 29.69 in 10.0 mi WNW 20.7 mph 28.8 mph N/A   Overcast
1:15 AM 39.2 °F 30.2 °F 30.2 °F 70% 29.68 in 10.0 mi WNW 17.3 mph 24.2 mph N/A   Overcast
1:35 AM 37.4 °F 27.2 °F 30.2 °F 75% 29.68 in 10.0 mi WNW 19.6 mph 27.6 mph N/A   Overcast
1:55 AM 37.4 °F 27.8 °F 30.2 °F 75% 29.67 in 10.0 mi West 17.3 mph 21.9 mph N/A   Overcast
2:15 AM 37.4 °F 27.2 °F 30.2 °F 75% 29.66 in 10.0 mi West 19.6 mph 26.5 mph N/A   Overcast
2:35 AM 37.4 °F 27.2 °F 30.2 °F 75% 29.64 in 10.0 mi West 19.6 mph 25.3 mph N/A   Overcast
2:55 AM 37.4 °F 27.2 °F 28.4 °F 70% 29.62 in 10.0 mi West 19.6 mph 26.5 mph N/A   Scattered Clouds
3:15 AM 37.4 °F 27.2 °F 30.2 °F 75% 29.61 in 10.0 mi West 19.6 mph 28.8 mph N/A   Scattered Clouds
3:35 AM 37.4 °F 26.4 °F 30.2 °F 75% 29.60 in 10.0 mi West 23.0 mph 27.6 mph N/A   Overcast
3:55 AM 37.4 °F 27.2 °F 30.2 °F 75% 29.58 in 10.0 mi West 19.6 mph 31.1 mph N/A   Overcast
4:15 AM 37.4 °F 26.4 °F 30.2 °F 75% 29.57 in 10.0 mi West 23.0 mph 32.2 mph N/A   Overcast
4:35 AM 37.4 °F 25.4 °F 30.2 °F 75% 29.57 in 10.0 mi West 27.6 mph 33.4 mph N/A   Overcast
4:55 AM 39.2 °F 27.8 °F 28.4 °F 65% 29.57 in 10.0 mi WNW 27.6 mph 35.7 mph N/A   Overcast
5:15 AM - - - N/A% 29.67 in 0.5 mi North 31.1 mph 48.3 mph N/A   Overcast
5:35 AM - - - N/A% 29.69 in 5.0 mi North 32.2 mph 38.0 mph N/A   Overcast
5:55 AM - - - N/A% 29.73 in 7.0 mi North 33.4 mph 48.3 mph N/A   Overcast
6:15 AM 19.4 °F 1.1 °F 10.4 °F 68% 29.76 in 2.0 mi North 27.6 mph 36.8 mph N/A   Overcast
6:35 AM 19.4 °F 2.8 °F 6.8 °F 58% 29.77 in 10.0 mi NNW 21.9 mph 39.1 mph N/A   Overcast
6:55 AM 19.4 °F 1.4 °F 8.6 °F 63% 29.78 in 10.0 mi NNW 26.5 mph 34.5 mph N/A   Overcast
7:15 AM 19.4 °F -0.6 °F 6.8 °F 58% 29.79 in 10.0 mi NNW 34.5 mph 40.3 mph N/A   Scattered Clouds
7:35 AM 17.6 °F -3.6 °F -4.0 °F 38% 29.82 in 10.0 mi NNW 36.8 mph 42.6 mph N/A   Clear
7:55 AM 15.8 °F -4.4 °F 1.4 °F 53% 29.87 in 10.0 mi NNW 29.9 mph 36.8 mph N/A   Partly Cloudy
8:15 AM 14.0 °F -6.8 °F 1.4 °F 57% 29.91 in 10.0 mi NNW 29.9 mph 38.0 mph N/A   Scattered Clouds
8:35 AM 12.2 °F -8.6 °F -5.8 °F 45% 29.95 in 10.0 mi North 27.6 mph 43.7 mph N/A   Scattered Clouds
8:55 AM 10.4 °F -13.0 °F -2.2 °F 57% 29.97 in 10.0 mi NNW 34.5 mph 42.6 mph N/A   Scattered Clouds
9:15 AM 10.4 °F -12.3 °F -2.2 °F 57% 30.00 in 10.0 mi NNW 32.2 mph 39.1 mph N/A   Scattered Clouds
9:35 AM 8.6 °F -15.1 °F -5.8 °F 52% 30.02 in 10.0 mi North 33.4 mph 40.3 mph N/A   Scattered Clouds
9:55 AM 8.6 °F -15.4 °F -2.2 °F 62% 30.06 in 10.0 mi NNW 34.5 mph 46.0 mph N/A   Mostly Cloudy
10:15 AM 8.6 °F -14.8 °F -5.8 °F 52% 30.08 in 10.0 mi NNW 32.2 mph 46.0 mph N/A   Scattered Clouds
10:55 AM 6.8 °F -18.2 °F -7.6 °F 52% 30.14 in 10.0 mi NNW 35.7 mph 44.9 mph N/A   Mostly Cloudy
11:15 AM 6.8 °F -16.6 °F -9.4 °F 48% 30.15 in 10.0 mi NNW 29.9 mph 42.6 mph N/A   Scattered Clouds
11:35 AM 5.0 °F -19.4 °F -7.6 °F 56% 30.18 in 10.0 mi NNW 31.1 mph 41.4 mph N/A   Scattered Clouds
11:55 AM 5.0 °F -19.4 °F -7.6 °F 56% 30.19 in 10.0 mi NNW 31.1 mph 42.6 mph N/A   Mostly Cloudy
12:15 PM 5.0 °F -19.0 °F -9.4 °F 52% 30.19 in 10.0 mi NW 29.9 mph 35.7 mph N/A   Mostly Cloudy
12:35 PM 5.0 °F -18.3 °F -9.4 °F 52% 30.21 in 10.0 mi NNW 27.6 mph 36.8 mph N/A   Partly Cloudy
12:55 PM 5.0 °F -17.5 °F -9.4 °F 52% 30.22 in 10.0 mi NNW 25.3 mph 38.0 mph N/A   Scattered Clouds
1:15 PM 3.2 °F -21.5 °F -11.2 °F 51% 30.23 in 10.0 mi NNW 29.9 mph 39.1 mph N/A   Partly Cloudy
1:35 PM 3.2 °F -20.3 °F -9.4 °F 56% 30.24 in 10.0 mi NNW 26.5 mph 33.4 mph N/A   Partly Cloudy
1:55 PM 3.2 °F -19.0 °F -7.6 °F 61% 30.25 in 10.0 mi NW 23.0 mph 32.2 mph N/A   Scattered Clouds
2:15 PM 3.2 °F -20.3 °F -9.4 °F 56% 30.27 in 10.0 mi NNW 26.5 mph 32.2 mph N/A   Scattered Clouds
2:35 PM 3.2 °F -19.0 °F -9.4 °F 56% 30.29 in 10.0 mi NNW 23.0 mph 31.1 mph N/A   Partly Cloudy
2:55 PM 3.2 °F -17.6 °F -11.2 °F 51% 30.30 in 10.0 mi NNW 19.6 mph 28.8 mph N/A   Partly Cloudy
3:15 PM 3.2 °F -17.1 °F -9.4 °F 56% 30.32 in 10.0 mi NW 18.4 mph 24.2 mph N/A   Partly Cloudy
3:35 PM 3.2 °F -18.6 °F -9.4 °F 56% 30.32 in 10.0 mi NW 21.9 mph 29.9 mph N/A   Mostly Cloudy
3:55 PM 1.4 °F -19.9 °F -11.2 °F 56% 30.34 in 10.0 mi NW 19.6 mph 25.3 mph N/A   Mostly Cloudy
4:15 PM 1.4 °F -20.5 °F -11.2 °F 56% 30.34 in 10.0 mi NNW 20.7 mph 26.5 mph N/A   Scattered Clouds
4:35 PM 1.4 °F -16.1 °F -11.2 °F 56% 30.36 in 10.0 mi NNW 12.7 mph 23.0 mph N/A   Partly Cloudy
4:55 PM 1.4 °F -21.4 °F -9.4 °F 61% 30.36 in 10.0 mi NW 23.0 mph 26.5 mph N/A   Mostly Cloudy
5:15 PM 1.4 °F -19.4 °F -11.2 °F 56% 30.38 in 10.0 mi NW 18.4 mph 25.3 mph N/A   Partly Cloudy
5:35 PM -0.4 °F -18.4 °F -9.4 °F 66% 30.39 in 10.0 mi NNW 12.7 mph - N/A   Clear
5:55 PM -0.4 °F -21.2 °F -11.2 °F 60% 30.38 in 10.0 mi NNW 17.3 mph 21.9 mph N/A   Clear
6:15 PM -0.4 °F -22.8 °F -9.4 °F 66% 30.38 in 10.0 mi NW 20.7 mph - N/A   Clear
6:35 PM -0.4 °F -20.5 °F -9.4 °F 66% 30.40 in 10.0 mi NNW 16.1 mph 21.9 mph N/A   Clear
6:55 PM -0.4 °F -20.5 °F -9.4 °F 66% 30.41 in 10.0 mi NW 16.1 mph 24.2 mph N/A   Partly Cloudy
7:15 PM -0.4 °F -19.9 °F -11.2 °F 60% 30.41 in 10.0 mi NW 15.0 mph 20.7 mph N/A   Clear
7:35 PM -0.4 °F -17.6 °F -9.4 °F 66% 30.41 in 10.0 mi NW 11.5 mph 18.4 mph N/A   Clear
7:55 PM -0.4 °F -21.7 °F -11.2 °F 60% 30.42 in 10.0 mi NNW 18.4 mph - N/A   Clear
8:55 PM -2.2 °F -19.9 °F -11.2 °F 66% 30.43 in 10.0 mi NW 11.5 mph 16.1 mph N/A   Clear
9:35 PM -2.2 °F -20.7 °F -11.2 °F 66% 30.42 in 10.0 mi NW 12.7 mph - N/A   Clear
9:55 PM -2.2 °F -19.9 °F -9.4 °F 71% 30.42 in 10.0 mi NW 11.5 mph - N/A   Clear
10:15 PM -2.2 °F -18.9 °F -9.4 °F 71% 30.42 in 10.0 mi NW 10.4 mph - N/A   Clear
10:35 PM -2.2 °F -18.0 °F -11.2 °F 66% 30.42 in 10.0 mi NW 9.2 mph - N/A   Clear
11:15 PM -2.2 °F -20.7 °F -11.2 °F 66% 30.41 in 10.0 mi NW 12.7 mph 21.9 mph N/A   Clear
11:35 PM -2.2 °F -22.2 °F -11.2 °F 66% 30.41 in 10.0 mi NW 15.0 mph - N/A   Clear
11:55 PM -2.2 °F -23.5 °F -11.2 °F 66% 30.41 in 10.0 mi NNW 17.3 mph - N/A   Clear